TimeCEST,TemperatureF,Dew PointF,Humidity,Sea Level PressureIn,VisibilityMPH,Wind Direction,Wind SpeedMPH,Gust SpeedMPH,PrecipitationIn,Events,Conditions,WindDirDegrees,DateUTC
12:20 AM,51.8,51.8,100,30.21,2.5,North,5.8,-,N/A,,Mist,360,2012-10-19 22:20:00
12:50 AM,51.8,50.0,94,30.21,2.5,North,6.9,-,N/A,,Mist,360,2012-10-19 22:50:00
1:20 AM,51.8,50.0,94,30.21,2.5,North,5.8,-,N/A,,Mist,360,2012-10-19 23:20:00
1:50 AM,51.8,50.0,94,30.21,2.5,North,4.6,-,N/A,,Mist,10,2012-10-19 23:50:00
2:20 AM,51.8,50.0,94,30.21,2.5,North,5.8,-,N/A,,Mist,10,2012-10-20 00:20:00
2:50 AM,51.8,50.0,94,30.21,2.5,NNE,3.5,-,N/A,,Mist,30,2012-10-20 00:50:00
3:20 AM,50.0,48.2,94,30.18,4.3,North,5.8,-,N/A,,Unknown,360,2012-10-20 01:20:00
3:50 AM,51.8,50.0,94,30.18,4.3,Variable,1.2,-,N/A,,Unknown,0,2012-10-20 01:50:00
4:20 AM,48.2,46.4,93,30.18,4.3,North,6.9,-,N/A,,Unknown,360,2012-10-20 02:20:00
4:50 AM,50.0,48.2,94,30.18,4.3,NNE,3.5,-,N/A,,Unknown,20,2012-10-20 02:50:00
5:20 AM,50.0,48.2,94,30.18,4.3,NE,5.8,-,N/A,,Unknown,40,2012-10-20 03:20:00
5:50 AM,51.8,48.2,88,30.18,4.3,Variable,2.3,-,N/A,,Unknown,0,2012-10-20 03:50:00
6:20 AM,50.0,48.2,94,30.18,4.3,North,4.6,-,N/A,,Unknown,360,2012-10-20 04:20:00
6:50 AM,50.0,48.2,94,30.18,-9999.0,North,5.8,-,N/A,,Clear,10,2012-10-20 04:50:00
7:20 AM,50.0,46.4,87,30.18,-9999.0,North,3.5,-,N/A,,Clear,360,2012-10-20 05:20:00
7:50 AM,50.0,46.4,87,30.18,6.2,North,4.6,-,N/A,,Scattered Clouds,10,2012-10-20 05:50:00
8:20 AM,50.0,48.2,94,30.18,6.2,NNE,5.8,-,N/A,,Partly Cloudy,30,2012-10-20 06:20:00
8:50 AM,51.8,50.0,94,30.18,-9999.0,NNE,5.8,-,N/A,,Clear,20,2012-10-20 06:50:00
9:20 AM,55.4,50.0,82,30.18,-9999.0,Variable,1.2,-,N/A,,Clear,0,2012-10-20 07:20:00
9:50 AM,57.2,51.8,82,30.18,-9999.0,Variable,2.3,-,N/A,,Clear,0,2012-10-20 07:50:00
10:20 AM,59.0,51.8,77,30.18,-9999.0,SSW,3.5,-,N/A,,Clear,210,2012-10-20 08:20:00
10:50 AM,60.8,53.6,77,30.18,-9999.0,SSW,3.5,-,N/A,,Clear,210,2012-10-20 08:50:00
11:20 AM,62.6,53.6,72,30.21,-9999.0,Variable,2.3,-,N/A,,Clear,0,2012-10-20 09:20:00
11:50 AM,64.4,51.8,64,30.21,-9999.0,Variable,2.3,-,N/A,,Clear,0,2012-10-20 09:50:00
12:20 PM,64.4,51.8,64,30.18,-9999.0,Variable,2.3,-,N/A,,Clear,0,2012-10-20 10:20:00
12:50 PM,64.4,51.8,64,30.18,-9999.0,Variable,2.3,-,N/A,,Clear,0,2012-10-20 10:50:00
1:20 PM,66.2,53.6,64,30.18,-9999.0,Variable,2.3,-,N/A,,Clear,0,2012-10-20 11:20:00
1:50 PM,66.2,53.6,64,30.15,-9999.0,SW,5.8,-,N/A,,Clear,230,2012-10-20 11:50:00
2:20 PM,66.2,55.4,68,30.15,-9999.0,SW,5.8,-,N/A,,Clear,220,2012-10-20 12:20:00
2:50 PM,68.0,55.4,64,30.15,-9999.0,SW,5.8,-,N/A,,Clear,220,2012-10-20 12:50:00
3:20 PM,66.2,53.6,64,30.15,-9999.0,SW,6.9,-,N/A,,Clear,220,2012-10-20 13:20:00
3:50 PM,68.0,55.4,64,30.12,-9999.0,SW,5.8,-,N/A,,Clear,230,2012-10-20 13:50:00
4:20 PM,68.0,53.6,60,30.12,-9999.0,WSW,4.6,-,N/A,,Clear,240,2012-10-20 14:20:00
4:50 PM,68.0,53.6,60,30.12,-9999.0,WSW,5.8,-,N/A,,Clear,240,2012-10-20 14:50:00
5:20 PM,66.2,53.6,64,30.12,-9999.0,SW,5.8,-,N/A,,Clear,220,2012-10-20 15:20:00
5:50 PM,66.2,53.6,64,30.12,-9999.0,Calm,Calm,-,N/A,,Clear,0,2012-10-20 15:50:00
6:20 PM,64.4,53.6,68,30.12,-9999.0,SSW,3.5,-,N/A,,Clear,210,2012-10-20 16:20:00
6:50 PM,60.8,53.6,77,30.12,-9999.0,Variable,1.2,-,N/A,,Clear,0,2012-10-20 16:50:00
7:20 PM,59.0,53.6,82,30.15,-9999.0,NNE,3.5,-,N/A,,Clear,20,2012-10-20 17:20:00
7:50 PM,59.0,55.4,88,30.15,-9999.0,NNE,5.8,-,N/A,,Clear,20,2012-10-20 17:50:00
8:20 PM,57.2,53.6,88,30.15,-9999.0,NNE,4.6,-,N/A,,Clear,20,2012-10-20 18:20:00
8:50 PM,55.4,53.6,94,30.12,-9999.0,NNE,4.6,-,N/A,,Clear,20,2012-10-20 18:50:00
9:20 PM,57.2,53.6,88,30.15,-9999.0,NNE,3.5,-,N/A,,Clear,20,2012-10-20 19:20:00
9:50 PM,57.2,53.6,88,30.15,-9999.0,North,5.8,-,N/A,,Clear,10,2012-10-20 19:50:00
10:20 PM,55.4,53.6,94,30.15,-9999.0,North,5.8,-,N/A,,Clear,10,2012-10-20 20:20:00
10:50 PM,55.4,53.6,94,30.15,-9999.0,North,6.9,-,N/A,,Clear,360,2012-10-20 20:50:00
11:20 PM,53.6,51.8,94,30.15,-9999.0,NNE,5.8,-,N/A,,Clear,30,2012-10-20 21:20:00
11:50 PM,53.6,51.8,94,30.15,-9999.0,NNE,5.8,-,N/A,,Clear,20,2012-10-20 21:50:00